FW1737 Weather Reports


Display with metric or nautical units.
time (UTC)temp
F
wind
direction
speed
MPH
gust
MPH
rain 1hr
in
rain 24hr
in
rain mn
in
humidity
%
barometer
mb
20260508073002 44 215 0.0 2.0 0.00 0.89 0.00 100 1000.7
20260508071602 44 216 2.0 4.0 0.00 0.89 0.00 100 1001.0
20260508070100 44 215 1.0 3.0 0.00 0.89 0.00 100 1001.0
20260508064558 45 215 0.0 4.0 0.00 0.89 0.00 100 1000.8
20260508063102 45 213 2.0 4.0 0.00 0.89 0.00 100 1001.1
20260508061559 45 213 2.0 3.0 0.00 0.89 0.00 100 1000.9
20260508060053 46 213 0.0 3.0 0.00 0.89 0.00 100 1001.1
20260508054551 46 213 2.0 3.0 0.00 0.89 0.00 100 1001.2
20260508053059 47 212 1.0 3.0 0.00 0.89 0.00 100 1001.2
20260508051550 47 209 0.0 3.0 0.00 0.89 0.00 100 1001.1
20260508050044 47 209 0.0 1.0 0.00 0.89 0.00 100 1001.0
20260508044544 47 209 0.0 1.0 0.00 0.89 0.00 100 1000.9
20260508043049 48 209 1.0 2.0 0.00 0.89 0.00 100 1000.8
20260508041541 48 209 0.0 2.0 0.00 0.89 0.00 100 1001.1
20260508040038 49 209 2.0 4.0 0.00 0.89 0.00 100 1001.3
20260508034539 49 209 1.0 3.0 0.00 0.89 0.00 100 1001.3
20260508033034 50 194 2.0 4.0 0.00 0.89 0.00 100 1001.6
20260508031531 50 194 0.0 2.0 0.00 0.89 0.00 100 1001.6
20260508030029 50 194 0.0 2.0 0.00 0.89 0.00 100 1001.3
20260508024528 51 190 1.0 3.0 0.00 0.89 0.89 100 1001.5
20260508023027 51 146 2.0 4.0 0.00 0.89 0.89 100 1001.5
20260508021528 51 101 0.0 0.0 0.00 0.89 0.89 100 1001.9
20260508020035 51 101 0.0 4.0 0.00 0.89 0.89 100 1001.6
20260508014527 51 304 0.0 5.0 0.00 0.89 0.89 100 1001.8
20260508013026 51 313 0.0 2.0 0.00 0.89 0.89 100 1001.8
20260508011526 52 313 0.0 3.0 0.00 0.89 0.89 100 1001.6
20260508010029 52 329 1.0 4.0 0.00 0.89 0.89 100 1001.3
20260508004525 52 148 2.0 3.0 0.00 0.89 0.89 100 1001.4
20260508003024 52 148 0.0 2.0 0.00 0.89 0.89 100 1001.4
20260508001524 52 148 0.0 0.0 0.00 0.89 0.89 100 1001.5
20260508000023 52 148 0.0 3.0 0.00 0.89 0.89 100 1001.4
20260507234531 52 279 1.0 2.0 0.00 0.89 0.89 100 1001.4
20260507233022 52 279 1.0 3.0 0.00 0.89 0.89 100 1001.6
20260507231521 52 279 0.0 0.0 0.00 0.89 0.89 100 1001.6
20260507230020 52 279 0.0 4.0 0.00 0.89 0.89 100 1001.7
20260507224525 52 284 0.0 4.0 0.00 0.89 0.89 100 1001.5
20260507223020 52 180 2.0 3.0 0.00 0.89 0.89 99 1001.5
20260507221520 52 149 2.0 5.0 0.00 0.89 0.89 99 1001.3
20260507220019 52 206 2.0 9.0 0.00 0.89 0.89 99 1001.6
20260507214523 53 124 2.0 9.0 0.00 0.89 0.89 99 1001.5
20260507213019 53 211 4.0 7.0 0.00 0.89 0.89 99 1001.6
20260507211517 53 204 6.0 11.0 0.00 0.89 0.89 99 1001.8
20260507210017 54 244 4.0 7.0 0.01 0.89 0.89 99 1001.9
20260507204516 53 180 1.0 8.0 0.02 0.89 0.89 100 1001.2
20260507203016 53 126 3.0 7.0 0.05 0.89 0.89 100 1000.8
20260507201513 53 102 2.0 5.0 0.08 0.89 0.89 99 1001.1
20260507200013 53 96 3.0 8.0 0.12 0.88 0.88 100 1001.2
20260507194511 53 88 0.0 3.0 0.19 0.87 0.87 100 1002.2
20260507193008 53 83 2.0 5.0 0.24 0.84 0.84 100 1002.0
20260507191506 53 96 1.0 5.0 0.27 0.81 0.81 100 1002.5
20260507190003 53 223 3.0 7.0 0.31 0.75 0.75 100 1003.2
20260507184501 53 213 3.0 8.0 0.35 0.68 0.68 99 1003.4
20260507183100 52 211 4.0 10.0 0.48 0.60 0.60 99 1003.9
20260507181558 52 183 3.0 9.0 0.50 0.54 0.54 99 1004.0
20260507180057 52 203 2.0 5.0 0.43 0.45 0.45 99 1004.4
20260507174606 52 200 7.0 11.0 0.34 0.34 0.34 98 1004.7
20260507173055 52 173 6.0 16.0 0.12 0.12 0.12 98 1004.7
20260507171603 53 183 9.0 17.0 0.04 0.04 0.04 98 1003.9
20260507170053 53 193 8.0 17.0 0.02 0.02 0.02 98 1004.0
20260507164550 53 184 7.0 15.0 0.00 0.00 0.00 98 1004.5
20260507163048 53 175 8.0 13.0 0.00 0.00 0.00 97 1004.8
20260507161545 53 190 10.0 20.0 0.00 0.00 0.00 95 1005.5
20260507160046 54 170 8.0 22.0 0.00 0.00 0.00 95 1005.6
20260507154540 54 163 8.0 21.0 0.00 0.00 0.00 95 1006.2
20260507153038 54 179 13.0 21.0 0.00 0.00 0.00 95 1006.2
20260507151537 55 167 10.0 24.0 0.00 0.00 0.00 94 1006.9
20260507150034 56 217 11.0 21.0 0.00 0.00 0.00 92 1007.2
20260507144546 56 209 13.0 22.0 0.00 0.00 0.00 92 1007.3
20260507143029 56 238 13.0 26.0 0.00 0.00 0.00 94 1007.4
20260507141527 56 212 10.0 23.0 0.00 0.00 0.00 94 1007.8
20260507140024 55 190 12.0 25.0 0.00 0.00 0.00 94 1007.9
20260507134527 55 227 15.0 24.0 0.00 0.00 0.00 93 1008.2
20260507133023 56 221 14.0 25.0 0.00 0.00 0.00 94 1008.3
20260507131521 55 177 8.0 24.0 0.00 0.00 0.00 95 1008.4
20260507130020 55 148 13.0 28.0 0.00 0.00 0.00 95 1008.5
20260507124521 55 176 12.0 25.0 0.00 0.00 0.00 95 1008.8
20260507123017 55 186 11.0 26.0 0.00 0.00 0.00 95 1008.6
20260507121515 55 205 16.0 30.0 0.00 0.00 0.00 95 1008.3
20260507120013 55 177 14.0 25.0 0.00 0.00 0.00 96 1008.4
20260507114509 54 181 16.0 29.0 0.00 0.00 0.00 97 1008.7
20260507113012 54 227 10.0 21.0 0.00 0.00 0.00 97 1009.3
20260507111506 54 167 10.0 25.0 0.00 0.00 0.00 98 1009.3
20260507110003 54 165 9.0 16.0 0.00 0.00 0.00 98 1009.4
20260507104611 53 209 13.0 23.0 0.00 0.00 0.00 98 1009.8
20260507103113 54 208 9.0 22.0 0.00 0.00 0.00 98 1009.9
20260507101556 53 140 6.0 13.0 0.00 0.00 0.00 98 1009.7
20260507100055 53 121 5.0 13.0 0.00 0.00 0.00 98 1010.5
20260507094554 53 159 5.0 12.0 0.00 0.00 0.00 98 1010.7
20260507093058 53 190 7.0 16.0 0.00 0.00 0.00 98 1010.8
20260507091556 53 166 6.0 12.0 0.00 0.00 0.00 99 1010.6
20260507090049 52 144 5.0 17.0 0.00 0.00 0.00 99 1010.8
20260507084547 53 195 6.0 10.0 0.00 0.00 0.00 99 1011.1
20260507083048 53 167 6.0 10.0 0.00 0.00 0.00 99 1011.5
20260507081544 53 222 3.0 11.0 0.00 0.00 0.00 98 1011.5
20260507080045 52 151 2.0 10.0 0.00 0.00 0.00 98 1011.5
20260507074542 52 128 5.0 10.0 0.00 0.00 0.00 98 1011.5